Golden Princess — ZCDA9 — position and weather

sailwx.info

Track history (hours):
 
Tides and Currents Weather Stations Pressure Air Temp Water Temp Dewpoint Dewpoint Depression Visibility Wind Speed Wind Dir Waves Ship Positions

Golden Princess

Operator: Princess Cruises

Last reported at 2014-Jul-28 04:00 UTC. Time now 2014-Jul-29 08:43 UTC.
Position N 53°54' W 133°24'.

Length 289.6 m; beam 36 m; draft 8.5 m.

Type: Ship. MMSI: 310344000.

Wind from 150 at 16 knots

Waves 0.5 meters (2 feet), 2 second period

Barometer 1023.6 mb
Air temperature 15.0 ° C
Visibility: greater than 10.8 NM
Dewpoint 13.2 ° C
Water temperature 16.0 ° C

Date/timePositionNaut miles runAvg speedWind from/ knotsBaromVisibWave heightAir tempDewpointWater temp
2014-Jul-28 04:00N 53°54' W 133°24'34220.8 150 / 161023.610.8 0.515.013.216.0
2014-Jul-27 11:33N 49°38' W 127°19'2121.0
2014-Jul-27 10:33N 49°24' W 126°54'2121.2
2014-Jul-27 09:33N 49°11' W 126°29'2120.9
2014-Jul-27 08:33N 48°58' W 126°04'2121.0
2014-Jul-27 07:33N 48°46' W 125°38'2221.9
2014-Jul-27 06:34N 48°37' W 125°08'4622.0
2014-Jul-27 04:29N 48°20' W 124°04'2221.4
2014-Jul-27 03:27N 48°15' W 123°32'1213.7
2014-Jul-27 02:32N 48°11' W 123°14'1818.8
2014-Jul-27 01:33N 48°10' W 122°46'1818.3
2014-Jul-27 00:33N 47°55' W 122°30'1716.4
2014-Jul-26 23:33N 47°39' W 122°27'3 2.9
2014-Jul-26 22:32N 47°38' W 122°23'0 0.0
2014-Jul-26 21:28N 47°38' W 122°23'0 0.0
2014-Jul-26 20:31N 47°38' W 122°23'0 0.0
2014-Jul-26 19:31N 47°38' W 122°23'0 0.0
2014-Jul-26 18:33N 47°38' W 122°23'0 0.0
2014-Jul-26 17:30N 47°38' W 122°23'0 0.0
2014-Jul-26 16:29N 47°38' W 122°23'0 0.0
2014-Jul-26 15:32N 47°38' W 122°23'0 0.0
2014-Jul-26 14:32N 47°38' W 122°23'0 0.0
2014-Jul-26 13:31N 47°38' W 122°23'0 0.2
2014-Jul-26 12:33N 47°38' W 122°23'9 8.8
2014-Jul-26 11:34N 47°46' W 122°27'1414.0
2014-Jul-26 10:34N 47°59' W 122°36'1514.5
2014-Jul-26 09:33N 48°10' W 122°48'1918.5
2014-Jul-26 08:33N 48°11' W 123°16'1010.2
2014-Jul-26 07:34N 48°18' W 123°27'7 6.8
2014-Jul-26 06:33N 48°25' W 123°23'0 0.0
2014-Jul-26 05:32N 48°25' W 123°23'0 0.0
2014-Jul-26 04:32N 48°25' W 123°23'0 0.0
2014-Jul-26 03:31N 48°25' W 123°23'0 0.0
2014-Jul-26 02:31N 48°25' W 123°23'0 0.2
2014-Jul-26 01:33N 48°25' W 123°24'9 9.1
2014-Jul-26 00:34N 48°16' W 123°26'2121.0
2014-Jul-25 23:33N 48°14' W 123°58'2222.1
2014-Jul-25 22:34N 48°24' W 124°28'2221.5
2014-Jul-25 21:33N 48°28' W 124°59'2020.6
2014-Jul-25 20:33N 48°39' W 125°26'2120.9
2014-Jul-25 19:33N 48°52' W 125°50'2120.5
2014-Jul-25 18:33N 49°05' W 126°15'2120.3
2014-Jul-25 17:32N 49°18' W 126°40'32920.4
2014-Jul-25 01:23N 54°05' W 131°01'1720.5
2014-Jul-25 00:33N 54°21' W 131°07'26310.8
2014-Jul-24 00:16N 58°07' W 135°08'1520.5
2014-Jul-23 23:33N 58°14' W 135°33'1616.4
2014-Jul-23 22:34N 58°24' W 135°58'1313.1
2014-Jul-23 21:33N 58°36' W 136°05'1818.0
2014-Jul-23 20:33N 58°49' W 136°29'8 1.8
2014-Jul-23 16:07N 58°53' W 136°43'1018.1
2014-Jul-23 15:33N 58°48' W 136°26'1817.9
2014-Jul-23 14:33N 58°34' W 136°04'1211.6
2014-Jul-23 13:33N 58°23' W 135°57'10 9.8
2014-Jul-23 12:33N 58°17' W 135°42'1312.2
2014-Jul-23 11:30N 58°13' W 135°19'  
2014-Jul-20 10:31N 49°21' W 126°45'2020.8
2014-Jul-20 09:33N 49°09' W 126°20'2120.7
2014-Jul-20 08:33N 48°57' W 125°54'2120.8
2014-Jul-20 07:33N 48°46' W 125°28'2221.3
2014-Jul-20 06:33N 48°36' W 124°59'2221.3
2014-Jul-20 05:30N 48°27' W 124°28'2020.6
2014-Jul-20 04:33N 48°19' W 124°01'2020.2
2014-Jul-20 03:33N 48°15' W 123°32'1313.3
2014-Jul-20 02:33N 48°11' W 123°13'1818.2
2014-Jul-20 01:33N 48°10' W 122°45'1919.0
2014-Jul-20 00:34N 47°55' W 122°29'1817.7
2014-Jul-19 23:33N 47°38' W 122°25'1 1.5
2014-Jul-19 22:34N 47°38' W 122°23'0 0.0
2014-Jul-19 21:33N 47°38' W 122°23'0 0.0
2014-Jul-19 20:33N 47°38' W 122°23'0 0.0
2014-Jul-19 19:32N 47°38' W 122°23'0 0.0
2014-Jul-19 18:32N 47°38' W 122°23'0 0.0
2014-Jul-19 17:31N 47°38' W 122°23'0 0.0
2014-Jul-19 16:31N 47°38' W 122°23'0 0.0
2014-Jul-19 15:34N 47°38' W 122°23'0 0.0
2014-Jul-19 14:33N 47°38' W 122°23'0 0.0
2014-Jul-19 13:33N 47°38' W 122°23'3 3.0
2014-Jul-19 12:33N 47°39' W 122°27'1313.0
2014-Jul-19 11:33N 47°52' W 122°29'1413.5
2014-Jul-19 10:33N 48°03' W 122°39'1212.2
2014-Jul-19 09:33N 48°11' W 122°53'1515.0
2014-Jul-19 08:33N 48°11' W 123°16'1010.2
2014-Jul-19 07:33N 48°15' W 123°29'9 9.0
2014-Jul-19 06:32N 48°24' W 123°26'0 0.1
2014-Jul-19 05:31N 48°24' W 123°26'0 0.1
2014-Jul-19 04:33N 48°24' W 123°26'0 0.0
2014-Jul-19 03:33N 48°24' W 123°26'0 0.1
2014-Jul-19 02:33N 48°24' W 123°26'1 1.2
2014-Jul-19 01:33N 48°24' W 123°24'5 4.7
2014-Jul-19 00:33N 48°19' W 123°25'1717.5
2014-Jul-18 23:34N 48°14' W 123°50'2121.1
2014-Jul-18 22:33N 48°21' W 124°19'2020.3
2014-Jul-18 21:34N 48°29' W 124°47'2019.8
2014-Jul-18 20:33N 48°32' W 125°17'2121.4
2014-Jul-18 19:33N 48°47' W 125°41'2121.2
2014-Jul-18 18:34N 49°00' W 126°06'2120.9
2014-Jul-18 17:34N 49°13' W 126°31'2221.4
2014-Jul-18 16:33N 49°27' W 126°56'  
Track history (hours):
 
Tides and Currents Weather Stations Pressure Air Temp Water Temp Dewpoint Dewpoint Depression Visibility Wind Speed Wind Dir Waves Ship Positions

Golden Princess

Operator: Princess Cruises

Last reported at 2014-Jul-28 04:00 UTC. Time now 2014-Jul-29 08:43 UTC.
Position N 53°54' W 133°24'.

Length 289.6 m; beam 36 m; draft 8.5 m.

Type: Ship. MMSI: 310344000.

Wind from 150 at 16 knots

Waves 0.5 meters (2 feet), 2 second period

Barometer 1023.6 mb
Air temperature 15.0 ° C
Visibility: greater than 10.8 NM
Dewpoint 13.2 ° C
Water temperature 16.0 ° C

Date/timePositionNaut miles runAvg speedWind from/ knotsBaromVisibWave heightAir tempDewpointWater temp
2014-Jul-28 04:00N 53°54' W 133°24'34220.8 150 / 161023.610.8 0.515.013.216.0
2014-Jul-27 11:33N 49°38' W 127°19'2121.0
2014-Jul-27 10:33N 49°24' W 126°54'2121.2
2014-Jul-27 09:33N 49°11' W 126°29'2120.9
2014-Jul-27 08:33N 48°58' W 126°04'2121.0
2014-Jul-27 07:33N 48°46' W 125°38'2221.9
2014-Jul-27 06:34N 48°37' W 125°08'4622.0
2014-Jul-27 04:29N 48°20' W 124°04'2221.4
2014-Jul-27 03:27N 48°15' W 123°32'1213.7
2014-Jul-27 02:32N 48°11' W 123°14'1818.8
2014-Jul-27 01:33N 48°10' W 122°46'1818.3
2014-Jul-27 00:33N 47°55' W 122°30'1716.4
2014-Jul-26 23:33N 47°39' W 122°27'3 2.9
2014-Jul-26 22:32N 47°38' W 122°23'0 0.0
2014-Jul-26 21:28N 47°38' W 122°23'0 0.0
2014-Jul-26 20:31N 47°38' W 122°23'0 0.0
2014-Jul-26 19:31N 47°38' W 122°23'0 0.0
2014-Jul-26 18:33N 47°38' W 122°23'0 0.0
2014-Jul-26 17:30N 47°38' W 122°23'0 0.0
2014-Jul-26 16:29N 47°38' W 122°23'0 0.0
2014-Jul-26 15:32N 47°38' W 122°23'0 0.0
2014-Jul-26 14:32N 47°38' W 122°23'0 0.0
2014-Jul-26 13:31N 47°38' W 122°23'0 0.2
2014-Jul-26 12:33N 47°38' W 122°23'9 8.8
2014-Jul-26 11:34N 47°46' W 122°27'1414.0
2014-Jul-26 10:34N 47°59' W 122°36'1514.5
2014-Jul-26 09:33N 48°10' W 122°48'1918.5
2014-Jul-26 08:33N 48°11' W 123°16'1010.2
2014-Jul-26 07:34N 48°18' W 123°27'7 6.8
2014-Jul-26 06:33N 48°25' W 123°23'0 0.0
2014-Jul-26 05:32N 48°25' W 123°23'0 0.0
2014-Jul-26 04:32N 48°25' W 123°23'0 0.0
2014-Jul-26 03:31N 48°25' W 123°23'0 0.0
2014-Jul-26 02:31N 48°25' W 123°23'0 0.2
2014-Jul-26 01:33N 48°25' W 123°24'9 9.1
2014-Jul-26 00:34N 48°16' W 123°26'2121.0
2014-Jul-25 23:33N 48°14' W 123°58'2222.1
2014-Jul-25 22:34N 48°24' W 124°28'2221.5
2014-Jul-25 21:33N 48°28' W 124°59'2020.6
2014-Jul-25 20:33N 48°39' W 125°26'2120.9
2014-Jul-25 19:33N 48°52' W 125°50'2120.5
2014-Jul-25 18:33N 49°05' W 126°15'2120.3
2014-Jul-25 17:32N 49°18' W 126°40'32920.4
2014-Jul-25 01:23N 54°05' W 131°01'1720.5
2014-Jul-25 00:33N 54°21' W 131°07'26310.8
2014-Jul-24 00:16N 58°07' W 135°08'1520.5
2014-Jul-23 23:33N 58°14' W 135°33'1616.4
2014-Jul-23 22:34N 58°24' W 135°58'1313.1
2014-Jul-23 21:33N 58°36' W 136°05'1818.0
2014-Jul-23 20:33N 58°49' W 136°29'8 1.8
2014-Jul-23 16:07N 58°53' W 136°43'1018.1
2014-Jul-23 15:33N 58°48' W 136°26'1817.9
2014-Jul-23 14:33N 58°34' W 136°04'1211.6
2014-Jul-23 13:33N 58°23' W 135°57'10 9.8
2014-Jul-23 12:33N 58°17' W 135°42'1312.2
2014-Jul-23 11:30N 58°13' W 135°19'  
2014-Jul-20 10:31N 49°21' W 126°45'2020.8
2014-Jul-20 09:33N 49°09' W 126°20'2120.7
2014-Jul-20 08:33N 48°57' W 125°54'2120.8
2014-Jul-20 07:33N 48°46' W 125°28'2221.3
2014-Jul-20 06:33N 48°36' W 124°59'2221.3
2014-Jul-20 05:30N 48°27' W 124°28'2020.6
2014-Jul-20 04:33N 48°19' W 124°01'2020.2
2014-Jul-20 03:33N 48°15' W 123°32'1313.3
2014-Jul-20 02:33N 48°11' W 123°13'1818.2
2014-Jul-20 01:33N 48°10' W 122°45'1919.0
2014-Jul-20 00:34N 47°55' W 122°29'1817.7
2014-Jul-19 23:33N 47°38' W 122°25'1 1.5
2014-Jul-19 22:34N 47°38' W 122°23'0 0.0
2014-Jul-19 21:33N 47°38' W 122°23'0 0.0
2014-Jul-19 20:33N 47°38' W 122°23'0 0.0
2014-Jul-19 19:32N 47°38' W 122°23'0 0.0
2014-Jul-19 18:32N 47°38' W 122°23'0 0.0
2014-Jul-19 17:31N 47°38' W 122°23'0 0.0
2014-Jul-19 16:31N 47°38' W 122°23'0 0.0
2014-Jul-19 15:34N 47°38' W 122°23'0 0.0
2014-Jul-19 14:33N 47°38' W 122°23'0 0.0
2014-Jul-19 13:33N 47°38' W 122°23'3 3.0
2014-Jul-19 12:33N 47°39' W 122°27'1313.0
2014-Jul-19 11:33N 47°52' W 122°29'1413.5
2014-Jul-19 10:33N 48°03' W 122°39'1212.2
2014-Jul-19 09:33N 48°11' W 122°53'1515.0
2014-Jul-19 08:33N 48°11' W 123°16'1010.2
2014-Jul-19 07:33N 48°15' W 123°29'9 9.0
2014-Jul-19 06:32N 48°24' W 123°26'0 0.1
2014-Jul-19 05:31N 48°24' W 123°26'0 0.1
2014-Jul-19 04:33N 48°24' W 123°26'0 0.0
2014-Jul-19 03:33N 48°24' W 123°26'0 0.1
2014-Jul-19 02:33N 48°24' W 123°26'1 1.2
2014-Jul-19 01:33N 48°24' W 123°24'5 4.7
2014-Jul-19 00:33N 48°19' W 123°25'1717.5
2014-Jul-18 23:34N 48°14' W 123°50'2121.1
2014-Jul-18 22:33N 48°21' W 124°19'2020.3
2014-Jul-18 21:34N 48°29' W 124°47'2019.8
2014-Jul-18 20:33N 48°32' W 125°17'2121.4
2014-Jul-18 19:33N 48°47' W 125°41'2121.2
2014-Jul-18 18:34N 49°00' W 126°06'2120.9
2014-Jul-18 17:34N 49°13' W 126°31'2221.4
2014-Jul-18 16:33N 49°27' W 126°56'  

Dump ship's entire track history